• In Hungary
  • List of Countries
  • For 7 days
  • Water Temperature
  • Satellite Maps
  • Weather Map
  • News
  • Weather Widgets
  • user-avatar
    Login

    Hourly Weather Horobiivka

    Today, 14 December, Thursday

    Time Temperature Precipitation Wind Pressure Humidity
    00:00 +2°C° 0.7 mm 2 mps 747 mmHg 96%
    01:00 +2°C° 0.7 mm 2 mps 747 mmHg 96%
    02:00 +1°C° 0 mm 3 mps 746 mmHg 96%
    03:00 +2°C° 0.3 mm 2 mps 746 mmHg 96%
    04:00 +2°C° 0.3 mm 2 mps 746 mmHg 96%
    05:00 +2°C° 0.3 mm 2 mps 745 mmHg 97%
    06:00 +2°C° 0.1 mm 2 mps 745 mmHg 97%
    07:00 +3°C° 0.1 mm 1 mps 745 mmHg 97%
    08:00 +3°C° 0 mm 1 mps 744 mmHg 97%
    09:00 +3°C° 0.1 mm 1 mps 744 mmHg 96%
    10:00 +4°C° 0.1 mm 1 mps 744 mmHg 95%
    11:00 +4°C° 0.1 mm 1 mps 744 mmHg 95%
    12:00 +4°C° 0.2 mm 1 mps 744 mmHg 95%
    13:00 +4°C° 0.2 mm 1 mps 744 mmHg 94%
    14:00 +3°C° 0.2 mm 2 mps 744 mmHg 94%
    15:00 +3°C° 0 mm 2 mps 744 mmHg 94%
    16:00 +2°C° 0 mm 2 mps 744 mmHg 95%
    17:00 +2°C° 0 mm 2 mps 744 mmHg 95%
    18:00 +2°C° 0 mm 2 mps 744 mmHg 94%
    19:00 +2°C° 0 mm 2 mps 744 mmHg 93%
    20:00 +2°C° 0 mm 2 mps 744 mmHg 93%
    21:00 +1°C° 0 mm 3 mps 745 mmHg 92%
    22:00 +1°C° 0 mm 3 mps 745 mmHg 92%
    23:00 +1°C° 0 mm 3 mps 745 mmHg 92%

    Tomorrow, 15 December, Friday

    Time Temperature Precipitation Wind Pressure Humidity
    00:00 +1°C° 0 mm 3 mps 745 mmHg 93%
    01:00 +1°C° 0 mm 3 mps 745 mmHg 93%
    02:00 +1°C° 0 mm 3 mps 745 mmHg 94%
    03:00 +1°C° 0 mm 3 mps 745 mmHg 94%
    04:00 +1°C° 0 mm 3 mps 745 mmHg 94%
    05:00 +1°C° 0 mm 3 mps 745 mmHg 94%
    06:00 +1°C° 0 mm 3 mps 745 mmHg 94%
    07:00 +1°C° 0 mm 3 mps 746 mmHg 94%
    08:00 +1°C° 0 mm 3 mps 746 mmHg 95%
    09:00 +1°C° 0 mm 3 mps 746 mmHg 93%
    10:00 +2°C° 0 mm 3 mps 746 mmHg 91%
    11:00 +2°C° 0 mm 3 mps 746 mmHg 89%
    12:00 +3°C° 0 mm 3 mps 746 mmHg 88%
    13:00 +3°C° 0 mm 4 mps 746 mmHg 87%
    14:00 +4°C° 0 mm 4 mps 745 mmHg 86%
    15:00 +4°C° 0.1 mm 4 mps 745 mmHg 87%
    16:00 +3°C° 0.1 mm 4 mps 745 mmHg 89%
    17:00 +2°C° 0.1 mm 5 mps 746 mmHg 91%
    18:00 +2°C° 0 mm 5 mps 745 mmHg 91%
    19:00 +3°C° 0 mm 5 mps 745 mmHg 91%
    20:00 +3°C° 0 mm 5 mps 745 mmHg 92%
    21:00 +3°C° 0 mm 5 mps 745 mmHg 92%
    22:00 +2°C° 0 mm 5 mps 745 mmHg 92%
    23:00 +2°C° 0 mm 5 mps 744 mmHg 92%

    Day after tomorrow, 16 December, Saturday

    Time Temperature Precipitation Wind Pressure Humidity
    00:00 +3°C° 0 mm 5 mps 744 mmHg 92%
    01:00 +3°C° 0 mm 6 mps 744 mmHg 92%
    02:00 +3°C° 0 mm 6 mps 744 mmHg 91%
    03:00 +3°C° 0 mm 6 mps 744 mmHg 91%
    04:00 +3°C° 0 mm 6 mps 744 mmHg 91%
    05:00 +5°C° 0 mm 5 mps 744 mmHg 90%
    06:00 +4°C° 0.1 mm 6 mps 743 mmHg 91%
    07:00 +4°C° 0.1 mm 6 mps 743 mmHg 92%
    08:00 +4°C° 0.1 mm 6 mps 743 mmHg 92%
    09:00 +5°C° 0.3 mm 7 mps 742 mmHg 91%
    10:00 +6°C° 0.3 mm 8 mps 742 mmHg 90%
    11:00 +7°C° 0.3 mm 8 mps 742 mmHg 89%
    12:00 +7°C° 0.2 mm 8 mps 741 mmHg 86%
    13:00 +7°C° 0.2 mm 8 mps 741 mmHg 84%
    14:00 +9°C° 0.2 mm 7 mps 741 mmHg 81%
    15:00 +9°C° 0.1 mm 7 mps 741 mmHg 83%
    16:00 +8°C° 0.1 mm 6 mps 741 mmHg 84%
    17:00 +8°C° 0.1 mm 6 mps 741 mmHg 86%
    18:00 +8°C° 0.1 mm 6 mps 741 mmHg 88%
    19:00 +8°C° 0.1 mm 5 mps 742 mmHg 90%
    20:00 +8°C° 0.1 mm 5 mps 742 mmHg 92%
    21:00 +7°C° 0.5 mm 4 mps 742 mmHg 93%
    22:00 +7°C° 0.5 mm 4 mps 742 mmHg 94%
    23:00 +7°C° 0.5 mm 4 mps 743 mmHg 95%

    17 December, Sunday

    Time Temperature Precipitation Wind Pressure Humidity
    00:00 +7°C° 0.9 mm 3 mps 743 mmHg 95%
    01:00 +7°C° 0.9 mm 3 mps 743 mmHg 95%
    02:00 +7°C° 0.9 mm 2 mps 743 mmHg 96%
    03:00 +6°C° 0.7 mm 2 mps 743 mmHg 96%
    04:00 +6°C° 0.7 mm 2 mps 743 mmHg 96%
    05:00 +6°C° 0.7 mm 2 mps 743 mmHg 95%
    06:00 +5°C° 0.9 mm 2 mps 744 mmHg 95%
    07:00 +4°C° 0.9 mm 3 mps 744 mmHg 94%
    08:00 +4°C° 0.9 mm 3 mps 744 mmHg 94%
    09:00 +4°C° 0.5 mm 3 mps 744 mmHg 93%
    10:00 +3°C° 0.5 mm 4 mps 744 mmHg 92%
    11:00 +3°C° 0.5 mm 4 mps 744 mmHg 91%
    12:00 +3°C° 1.1 mm 4 mps 744 mmHg 91%
    13:00 +3°C° 1.1 mm 4 mps 744 mmHg 91%
    14:00 +3°C° 1.1 mm 4 mps 743 mmHg 91%
    15:00 +2°C° 1.5 mm 5 mps 743 mmHg 92%
    16:00 +1°C° 1.5 mm 5 mps 743 mmHg 92%
    17:00 +1°C° 1.5 mm 5 mps 743 mmHg 93%
    18:00 +1°C° 2.3 mm 5 mps 742 mmHg 93%
    19:00 +2°C° 2.3 mm 5 mps 742 mmHg 93%
    20:00 +2°C° 2.3 mm 6 mps 741 mmHg 93%
    21:00 +1°C° 1.9 mm 6 mps 741 mmHg 93%
    22:00 +1°C° 1.9 mm 6 mps 741 mmHg 93%
    23:00 +1°C° 1.9 mm 6 mps 740 mmHg 93%

    18 December, Monday

    Time Temperature Precipitation Wind Pressure Humidity
    00:00 -1°C° 0.8 mm 7 mps 740 mmHg 92%
    01:00 -1°C° 0.8 mm 7 mps 740 mmHg 91%
    02:00 -2°C° 0.8 mm 8 mps 741 mmHg 90%
    03:00 -2°C° 0.2 mm 8 mps 741 mmHg 89%
    04:00 -2°C° 0.2 mm 8 mps 742 mmHg 87%
    05:00 -2°C° 0.2 mm 8 mps 743 mmHg 86%
    06:00 -4°C° 0.1 mm 8 mps 744 mmHg 86%
    07:00 -4°C° 0.1 mm 8 mps 745 mmHg 86%
    08:00 -3°C° 0.1 mm 7 mps 746 mmHg 86%
    09:00 -3°C° 0 mm 7 mps 747 mmHg 85%
    10:00 -3°C° 0 mm 7 mps 748 mmHg 84%
    11:00 -3°C° 0 mm 6 mps 749 mmHg 83%
    12:00 -4°C° 0 mm 6 mps 749 mmHg 83%
    13:00 -4°C° 0 mm 6 mps 750 mmHg 83%
    14:00 -4°C° 0 mm 5 mps 750 mmHg 83%
    15:00 -4°C° 0 mm 5 mps 750 mmHg 84%
    16:00 -4°C° 0 mm 4 mps 751 mmHg 86%
    17:00 -4°C° 0 mm 4 mps 751 mmHg 88%
    18:00 -4°C° 0 mm 4 mps 752 mmHg 88%
    19:00 -4°C° 0 mm 3 mps 752 mmHg 89%
    20:00 -5°C° 0 mm 3 mps 753 mmHg 90%
    21:00 -5°C° 0 mm 3 mps 753 mmHg 89%
    22:00 -5°C° 0 mm 3 mps 753 mmHg 89%
    23:00 -5°C° 0 mm 3 mps 753 mmHg 89%

    19 December, Tuesday

    Time Temperature Precipitation Wind Pressure Humidity
    00:00 -5°C° 0 mm 3 mps 753 mmHg 88%
    01:00 -5°C° 0 mm 3 mps 754 mmHg 88%
    02:00 -5°C° 0 mm 3 mps 754 mmHg 88%
    03:00 -5°C° 0 mm 3 mps 754 mmHg 88%
    04:00 -5°C° 0 mm 3 mps 754 mmHg 88%
    05:00 -5°C° 0 mm 3 mps 754 mmHg 88%
    06:00 -5°C° 0 mm 3 mps 755 mmHg 88%
    07:00 -5°C° 0 mm 3 mps 755 mmHg 88%
    08:00 -5°C° 0 mm 3 mps 755 mmHg 88%
    09:00 -5°C° 0 mm 3 mps 756 mmHg 86%
    10:00 -4°C° 0 mm 3 mps 756 mmHg 85%
    11:00 -4°C° 0 mm 3 mps 756 mmHg 83%
    12:00 -4°C° 0 mm 3 mps 756 mmHg 83%
    13:00 -4°C° 0 mm 3 mps 756 mmHg 83%
    14:00 -2°C° 0 mm 3 mps 756 mmHg 83%
    15:00 -4°C° 0 mm 3 mps 756 mmHg 86%
    16:00 -4°C° 0 mm 3 mps 756 mmHg 88%
    17:00 -4°C° 0 mm 2 mps 756 mmHg 90%
    18:00 -4°C° 0 mm 2 mps 756 mmHg 90%
    19:00 -4°C° 0 mm 2 mps 757 mmHg 90%
    20:00 -4°C° 0 mm 2 mps 757 mmHg 90%
    21:00 -4°C° 0 mm 2 mps 757 mmHg 90%
    22:00 -5°C° 0 mm 3 mps 757 mmHg 90%
    23:00 -5°C° 0 mm 3 mps 757 mmHg 90%
    Show more